Wind_Speed
24 26 27 26 18 23 30 29 31 31 28 26 22 20 24 26 29 28 25 23 13 13 20 19 14 10 12 11 7 8 8 11 14 15 15 13 14 16 13 20 19 20 23 21 20 23 23 26 21
25 22 16 25 19 14 22 25 19 22 27 25 24 25 22 29 29 27 24 23 24 18 21 19 18 18 15 15 15 16 17 19 17 16 17 17 15 14 14 17 17 18 19 17 26 20 20 22 22
23 19 19 28 24 18 16 17 21 24 25 23 24 26 22 29 33 32 28 25 23 18 26 26 24 21 19 18 19 18 22 23 19 21 24 22 16 12 10 14 14 17 19 23 24 21 22 20 18
9 24 19 28 29 29 29 26 24 27 29 28 30 27 29 27 30 34 32 29 28 24 24 26 27 28 27 28 25 27 29 23 25 26 22 23 23 15 16 12 14 16 21 21 23 24 25 21 18
8 8 10 25 30 30 31 32 32 30 30 31 29 30 27 28 30 29 31 31 31 29 30 30 28 32 31 35 34 33 25 23 26 25 25 24 23 18 20 15 13 17 21 19 17 26 33 24 23
5 5 9 6 22 27 30 35 39 39 39 37 33 32 30 30 27 29 30 31 32 32 29 31 31 29 29 33 34 34 28 27 32 29 32 35 30 26 19 18 13 19 16 16 16 26 24 20 20
3 6 3 2 10 14 19 16 13 25 34 38 39 40 40 36 33 32 33 33 34 35 34 33 35 33 31 33 38 37 37 37 36 35 32 30 28 18 15 19 16 27 16 15 21 24 18 21 23
8 6 6 4 7 13 15 17 17 15 14 24 32 36 37 41 42 38 36 35 36 36 38 34 36 37 40 41 40 37 34 39 38 30 27 21 20 17 20 15 27 30 20 17 21 24 26 23 21
8 9 8 10 9 11 13 15 14 16 17 16 15 19 25 30 35 37 39 39 39 40 40 40 42 39 36 40 39 40 40 37 31 24 22 13 15 27 32 37 35 31 30 28 31 27 26 34 24
11 10 7 6 11 11 10 11 14 14 14 17 21 21 20 20 23 28 32 35 39 42 43 44 44 45 45 45 45 44 37 33 25 21 19 21 28 34 35 32 27 25 26 30 27 30 31 30 26
12 15 9 4 5 4 6 9 10 11 13 15 17 19 22 22 21 20 21 25 28 32 35 35 35 37 40 40 39 32 27 23 26 22 27 33 32 24 27 28 29 24 29 29 29 28 27 30 29
15 13 17 6 4 4 3 3 4 8 7 7 9 10 12 16 20 22 23 22 24 25 27 27 27 29 31 34 33 35 32 36 32 33 28 28 29 27 26 25 29 30 29 29 26 26 25 26 29
18 14 8 12 12 14 16 10 4 3 3 4 5 5 7 10 12 12 14 15 17 17 17 19 21 23 25 26 27 26 25 31 32 33 26 27 24 26 28 31 32 32 34 30 32 29 29 29 32
20 16 15 17 19 21 23 21 18 14 9 4 3 3 3 4 4 5 7 8 11 12 11 9 9 11 13 16 19 31 34 36 31 34 29 32 27 30 36 32 31 29 30 30 31 30 30 31 30
32 27 25 20 20 22 26 26 22 20 19 17 14 10 5 3 5 5 6 5 3 4 5 3 4 5 7 8 8 10 19 28 31 32 29 29 30 34 36 29 25 30 23 21 20 19 19 20 22
31 32 27 25 26 29 32 29 27 26 22 20 18 20 18 14 8 5 6 5 3 4 3 1 3 4 7 9 10 8 9 9 15 19 27 30 27 26 21 26 25 10 6 9 8 14 21 24 25
30 27 28 24 22 22 28 30 31 30 28 25 21 18 18 18 17 14 13 11 9 9 8 6 5 6 7 8 10 9 8 7 8 12 17 21 22 21 18 21 16 12 9 9 10 18 23 19 24
28 23 23 23 24 22 26 28 28 26 26 27 27 26 25 21 18 17 18 17 16 14 14 14 14 11 10 9 9 10 9 6 4 3 5 8 11 8 6 7 12 11 12 4 17 23 19 30 31
24 19 19 22 22 23 28 30 28 25 22 22 23 24 25 24 25 24 21 19 16 15 18 16 15 16 16 13 11 10 11 11 9 9 9 7 7 6 9 13 11 16 18 12 15 20 26 30 34
15 16 16 18 20 20 23 26 28 29 26 22 21 20 20 21 21 22 21 20 19 20 21 19 18 19 38 30 25 15 11 11 8 8 9 10 11 12 19 24 22 20 19 21 23 32 32 38 39
7 11 13 13 15 16 21 21 22 24 24 26 25 24 19 15 15 17 18 15 15 16 15 13 14 23 30 38 36 27 23 19 15 12 9 5 7 18 21 17 27 29 34 32 29 27 32 36 34
4 7 6 7 11 14 17 16 17 19 20 21 21 22 22 19 15 14 13 13 11 8 8 6 10 22 26 30 29 27 37 29 25 14 8 2 10 24 26 25 24 24 27 29 38 45 45 44 42
4 9 3 6 8 12 13 14 14 14 14 14 16 18 18 18 16 14 13 10 12 16 11 7 9 14 14 24 24 30 24 29 25 22 19 15 20 23 23 18 23 28 26 23 34 41 44 52 41
11 6 7 1 8 11 10 12 15 14 14 13 13 13 15 16 17 15 14 11 11 12 19 16 16 18 25 24 15 15 15 7 24 19 19 23 20 24 18 17 22 24 28 35 47 60 64 64 66
15 10 8 6 4 5 10 11 13 12 13 18 21 19 16 11 13 15 17 10 13 12 17 24 18 21 28 27 27 10 27 28 33 20 27 19 18 25 23 30 38 34 40 43 53 59 68 67 78
20 16 13 10 8 6 5 6 9 11 10 12 18 20 24 25 20 20 19 19 17 19 22 19 15 21 34 33 30 32 37 43 30 23 15 23 30 35 36 36 41 38 49 53 62 69 74 85 86
27 22 16 18 13 11 10 12 9 8 9 13 18 20 20 22 25 27 26 24 23 24 23 22 20 26 30 32 27 33 38 34 35 29 25 30 34 38 45 44 44 51 62 69 73 77 85 87 91
32 26 24 23 18 17 15 16 15 11 10 12 15 16 18 22 23 27 28 27 28 28 26 23 19 14 22 26 24 34 31 27 26 31 30 39 41 46 48 50 56 63 70 76 79 83 87 93 91
39 35 32 29 24 22 20 20 21 17 17 16 19 17 18 25 28 28 27 29 32 32 34 33 32 29 32 31 28 33 33 34 41 41 36 40 48 55 61 63 66 72 76 81 85 88 95 90 88
43 41 36 34 35 27 25 25 23 25 26 23 25 24 28 29 29 29 31 32 35 36 37 37 38 37 40 42 41 43 41 50 49 54 55 58 56 59 59 68 72 77 86 90 86 96 94 89 85
Wind_Direction
168 175 179 186 187 208 213 216 216 220 219 222 224 217 207 204 202 188 157 181 184 180 206 183 222 173 205 202 216 254 268 321 313 323 328 345 344 351 341 329 333 350 340 336 339 333 342 344 358
180 176 185 192 190 205 223 225 234 235 231 225 221 222 213 210 208 212 216 207 194 207 205 208 223 220 227 261 257 258 271 293 311 319 321 330 333 332 330 333 334 337 345 336 344 339 336 339 343
188 195 191 202 199 211 215 228 226 232 228 226 214 212 216 212 213 222 227 229 236 221 208 216 229 230 245 263 245 253 275 288 302 301 308 315 332 332 328 336 329 333 326 324 348 344 338 330 333
192 213 219 207 213 217 227 238 240 235 235 232 232 228 225 228 220 228 236 238 242 234 218 213 231 242 256 260 258 266 277 284 290 298 302 305 311 309 313 327 306 307 326 341 343 346 346 338 325
98 167 210 234 227 225 236 239 238 237 241 238 239 238 237 233 232 232 233 238 243 243 239 246 255 256 257 255 261 267 277 282 297 296 303 313 321 314 322 317 303 306 319 335 332 331 336 332 332
57 148 164 229 227 237 242 249 251 248 246 243 244 242 241 238 239 240 244 243 248 253 249 250 257 263 258 259 263 270 271 279 303 287 301 304 307 307 308 311 313 319 315 318 313 327 330 336 330
298 332 311 5 262 238 240 232 237 239 245 249 250 251 252 249 247 247 246 251 252 255 256 255 260 268 256 264 272 275 273 274 285 288 292 294 299 294 299 310 327 326 308 308 325 324 328 344 324
316 315 323 275 251 245 244 242 238 238 238 244 248 249 252 253 252 253 253 249 252 253 255 256 254 257 260 264 269 275 274 275 285 295 295 286 286 296 315 309 313 318 321 304 330 326 325 333 328
21 354 336 313 285 258 239 238 244 249 251 258 259 253 254 256 256 253 253 254 254 255 259 264 269 263 260 260 267 271 275 279 284 284 279 260 271 298 301 304 307 309 311 312 322 324 317 319 305
18 356 352 297 272 259 246 240 239 240 243 248 257 261 261 261 258 256 254 254 255 255 259 261 261 261 261 265 267 273 279 274 283 260 257 276 288 301 301 302 295 294 300 313 312 315 314 310 300
26 46 53 336 296 269 249 235 221 221 229 237 243 252 258 258 257 258 255 253 255 256 261 264 263 263 263 265 269 259 257 247 279 251 263 279 291 283 297 292 283 289 297 303 302 309 312 310 310
47 69 55 85 85 94 113 211 240 240 229 230 237 242 251 257 256 258 262 262 256 251 253 257 261 262 261 262 260 251 242 263 258 266 271 282 285 286 298 291 287 289 295 296 295 303 306 305 294
50 56 68 73 80 80 78 84 107 194 215 229 243 252 254 253 253 253 256 260 266 269 268 267 270 274 277 281 274 248 252 244 264 260 260 254 270 271 282 286 285 290 292 292 297 295 292 292 293
62 60 59 59 70 74 79 77 76 85 104 134 181 202 217 231 233 244 252 258 259 258 261 266 275 285 295 298 279 252 257 245 251 254 263 269 264 267 286 286 286 286 295 297 294 294 297 297 297
60 54 52 53 57 69 72 69 71 71 71 72 82 81 96 153 181 197 213 223 246 275 279 289 2 10 355 345 317 297 262 257 261 265 271 261 257 264 268 290 313 326 305 317 316 327 326 319 314
63 57 58 60 63 68 69 69 68 67 69 68 70 76 77 78 82 126 146 141 145 148 110 61 339 346 351 6 13 358 332 306 266 266 270 274 272 277 284 287 299 299 313 323 333 327 318 313 310
65 55 56 55 58 65 74 70 64 63 63 66 65 68 75 78 77 86 96 101 102 99 86 67 40 1 335 336 344 354 348 327 297 274 268 267 270 277 279 289 309 288 346 307 298 322 293 287 307
69 55 57 55 54 58 67 70 69 64 66 70 68 63 68 73 81 80 82 83 82 83 81 69 59 43 22 358 329 315 314 307 308 276 251 268 250 248 275 318 295 318 351 312 284 279 284 288 302
72 57 46 51 49 49 64 64 67 66 66 63 64 66 65 68 70 74 72 73 73 68 67 72 67 57 41 30 10 353 330 324 315 318 326 334 318 295 288 265 284 285 281 262 280 282 285 290 292
61 67 45 49 41 33 52 64 63 59 56 58 61 60 60 64 69 72 69 62 61 68 73 74 64 60 64 52 42 30 5 355 340 291 276 284 284 282 298 285 292 293 266 265 272 280 301 279 276
63 54 39 38 47 36 41 43 56 60 51 50 50 52 56 57 64 66 65 64 61 56 41 50 59 39 54 52 42 31 16 21 359 347 327 339 26 342 340 312 285 279 270 266 266 276 297 327 311
111 75 25 4 36 40 40 46 39 49 42 37 40 45 46 41 46 57 55 35 29 42 24 35 59 42 30 21 3 8 26 28 21 349 343 192 345 324 329 328 318 303 288 271 272 272 282 306 308
211 126 153 346 357 39 34 34 39 34 35 32 22 24 29 41 57 55 37 8 359 355 338 4 1 5 19 14 18 7 12 17 16 6 347 306 321 309 302 336 324 316 294 288 295 304 308 306 312
223 181 173 183 335 359 14 19 25 20 7 9 360 4 7 11 26 29 50 37 22 10 26 358 316 333 354 355 14 349 3 334 335 353 328 338 317 306 292 333 316 306 293 292 298 297 296 302 302
228 220 209 208 227 334 356 353 360 3 352 342 336 337 342 354 1 1 3 26 14 333 329 326 341 353 350 348 343 320 326 312 313 317 315 294 321 328 296 322 318 303 303 303 293 292 295 292 301
230 228 226 236 239 263 296 314 335 349 341 323 317 323 326 332 336 336 343 355 9 0 351 325 326 350 336 328 332 323 318 320 323 300 296 310 311 324 320 314 316 311 307 296 298 293 295 303 302
238 236 234 234 236 243 265 293 308 331 334 313 314 313 319 319 318 316 324 334 344 340 347 355 338 305 313 311 317 319 328 325 304 292 287 299 310 314 308 310 298 293 298 296 291 294 296 299 301
247 243 242 243 242 243 244 265 286 302 302 297 301 301 301 301 296 297 310 319 322 321 325 327 335 326 317 329 303 328 314 328 322 309 286 293 307 307 301 295 296 303 305 303 303 303 305 306 305
244 245 245 252 252 253 254 261 266 274 276 282 286 296 294 290 293 296 300 305 306 310 314 316 321 318 314 317 325 327 323 313 318 321 318 297 296 292 292 306 308 307 307 308 307 305 305 306 305
249 255 254 256 255 255 258 259 262 268 274 281 283 289 290 299 305 306 306 301 298 300 304 306 314 316 316 312 312 318 319 323 323 317 317 314 311 311 312 308 310 309 310 309 307 309 308 307 306
Height
10966 10970 10974 10978 10984 10985 10986 10990 10993 10996 10999 11001 11004 11006 11009 11011 11013 11015 11018 11021 11021 11023 11022 11020 11020 11018 11020 11019 11019 11019 11019 11019 11018 11017 11016 11014 11012 11011 11009 11008 11006 11003 11001 10998 10996 10994 10990 10987 10983
10968 10972 10976 10977 10982 10986 10987 10989 10991 10994 10997 10999 11000 11003 11007 11009 11011 11013 11015 11016 11019 11022 11021 11020 11019 11018 11018 11019 11018 11018 11018 11017 11016 11016 11014 11013 11011 11009 11008 11007 11006 11004 11002 10999 10997 10994 10991 10988 10984
10972 10974 10976 10978 10980 10986 10987 10989 10990 10991 10994 10997 10999 11001 11004 11007 11009 11010 11012 11014 11014 11018 11018 11017 11017 11018 11017 11017 11017 11016 11015 11015 11015 11015 11014 11012 11010 11008 11005 11005 11004 11002 11001 11000 10996 10994 10991 10988 10984
10975 10977 10978 10979 10979 10982 10984 10986 10988 10988 10990 10993 10996 10999 11001 11003 11006 11007 11009 11011 11012 11014 11015 11016 11015 11016 11016 11016 11015 11013 11012 11012 11012 11012 11011 11010 11009 11006 11004 11003 11001 11000 10999 10998 10996 10994 10992 10989 10986
10976 10977 10980 10980 10980 10981 10981 10983 10985 10985 10987 10989 10992 10994 10997 10999 11002 11004 11005 11007 11008 11011 11012 11012 11011 11012 11012 11012 11012 11010 11009 11008 11010 11010 11010 11010 11009 11006 11003 11002 11000 11000 10998 10996 10996 10994 10993 10989 10987
10979 10978 10977 10979 10980 10980 10979 10979 10980 10981 10983 10986 10988 10991 10993 10995 10997 10999 11000 11003 11004 11004 11007 11008 11007 11008 11010 11008 11007 11007 11008 11007 11008 11009 11008 11008 11007 11006 11003 11003 11000 10999 10997 10995 10994 10993 10993 10989 10987
10975 10975 10977 10976 10977 10977 10978 10976 10977 10978 10980 10981 10982 10984 10987 10990 10993 10994 10996 10997 10998 10999 11001 11001 11002 11002 11002 11002 11002 11001 11005 11004 11004 11005 11005 11005 11004 11003 11002 11001 11000 10998 10996 10994 10993 10991 10990 10989 10988
10974 10974 10972 10974 10974 10975 10975 10975 10974 10976 10977 10978 10979 10979 10980 10982 10986 10989 10990 10993 10994 10994 10995 10996 10998 10999 10998 10997 10997 10996 10999 10999 11000 11001 11001 11002 11001 11001 10999 10998 10998 10997 10994 10994 10992 10990 10988 10987 10988
10973 10971 10967 10967 10970 10973 10973 10973 10973 10973 10973 10974 10975 10975 10976 10977 10979 10982 10984 10986 10987 10988 10989 10989 10990 10992 10992 10992 10991 10991 10993 10993 10996 10996 10998 10997 10996 10996 10996 10996 10994 10993 10992 10990 10990 10988 10986 10985 10985
10972 10972 10969 10969 10970 10971 10970 10971 10971 10971 10972 10972 10972 10973 10973 10973 10974 10975 10977 10979 10980 10982 10983 10984 10984 10985 10985 10986 10985 10986 10987 10989 10990 10992 10993 10993 10991 10991 10990 10990 10990 10990 10989 10988 10988 10986 10983 10982 10981
10972 10973 10971 10971 10972 10969 10969 10969 10969 10969 10970 10970 10971 10971 10971 10971 10970 10971 10972 10974 10975 10975 10976 10977 10978 10978 10979 10979 10979 10981 10984 10984 10985 10987 10988 10989 10988 10988 10987 10987 10986 10985 10985 10984 10983 10982 10981 10978 10976
10975 10974 10973 10976 10972 10968 10967 10966 10966 10966 10967 10967 10967 10968 10968 10968 10968 10967 10968 10969 10971 10972 10972 10972 10973 10973 10973 10973 10975 10977 10979 10980 10981 10982 10983 10984 10983 10982 10983 10983 10983 10981 10980 10979 10978 10977 10976 10976 10973
10979 10978 10980 10977 10972 10970 10968 10965 10966 10966 10965 10965 10965 10965 10965 10964 10964 10964 10965 10966 10965 10966 10966 10967 10967 10967 10966 10966 10966 10970 10972 10975 10977 10977 10979 10980 10979 10978 10979 10977 10977 10977 10977 10975 10975 10973 10971 10969 10968
10987 10983 10979 10975 10975 10972 10970 10969 10967 10967 10965 10964 10964 10964 10963 10962 10962 10961 10962 10962 10963 10964 10964 10965 10965 10964 10964 10963 10963 10965 10967 10970 10971 10972 10973 10975 10974 10975 10974 10974 10973 10973 10974 10971 10967 10965 10964 10964 10964
10986 10983 10978 10977 10976 10974 10970 10970 10969 10968 10967 10965 10963 10962 10962 10961 10960 10960 10960 10960 10960 10961 10962 10963 10963 10963 10963 10963 10963 10962 10961 10961 10962 10967 10968 10969 10968 10970 10970 10969 10970 10969 10967 10964 10961 10959 10959 10958 10958
10990 10988 10985 10983 10979 10978 10974 10974 10973 10970 10968 10967 10965 10963 10962 10960 10960 10959 10958 10958 10959 10959 10959 10959 10960 10960 10960 10959 10959 10957 10957 10958 10960 10963 10963 10964 10964 10966 10964 10965 10966 10965 10960 10961 10957 10956 10954 10954 10955
10991 10993 10993 10991 10986 10984 10980 10977 10976 10975 10973 10970 10968 10965 10963 10962 10961 10960 10958 10957 10957 10956 10956 10957 10958 10958 10958 10958 10958 10957 10957 10957 10957 10959 10960 10960 10961 10961 10962 10964 10965 10964 10959 10956 10955 10955 10955 10953 10952
10992 10996 10997 10997 10994 10988 10983 10982 10980 10981 10979 10977 10974 10973 10969 10966 10964 10963 10961 10959 10957 10956 10957 10959 10960 10958 10958 10958 10958 10958 10957 10958 10958 10957 10956 10956 10956 10958 10960 10961 10964 10961 10957 10956 10956 10953 10953 10952 10949
10994 10998 10998 10997 10996 10995 10988 10985 10984 10985 10985 10983 10979 10977 10976 10972 10968 10966 10965 10963 10961 10960 10963 10962 10962 10961 10960 10959 10957 10957 10955 10955 10955 10955 10954 10954 10953 10954 10954 10956 10956 10956 10956 10951 10949 10948 10946 10943 10942
10998 10999 11001 11000 10998 10999 10993 10991 10988 10987 10988 10986 10984 10982 10980 10979 10975 10971 10968 10968 10966 10965 10965 10967 10966 10964 10964 10963 10962 10959 10957 10956 10955 10953 10953 10954 10955 10956 10954 10951 10950 10950 10948 10945 10944 10941 10938 10936 10935
11000 10998 11001 11003 11003 11002 10996 10994 10992 10991 10991 10989 10987 10986 10984 10981 10979 10976 10974 10972 10970 10969 10969 10970 10968 10966 10966 10964 10963 10960 10957 10956 10954 10952 10951 10951 10953 10952 10950 10947 10944 10942 10941 10939 10937 10934 10930 10928 10926
11002 11000 11001 11005 11005 11003 11000 10999 10996 10993 10993 10992 10992 10990 10987 10984 10981 10979 10976 10973 10971 10969 10967 10967 10966 10966 10965 10965 10962 10960 10958 10956 10954 10950 10947 10948 10947 10947 10946 10942 10938 10933 10930 10928 10928 10928 10925 10921 10918
11004 11003 11005 11004 11004 11003 11001 11001 10999 10997 10996 10995 10994 10993 10991 10989 10986 10982 10979 10976 10973 10970 10970 10968 10967 10966 10965 10966 10964 10962 10960 10956 10954 10954 10953 10949 10945 10940 10936 10934 10932 10928 10925 10921 10918 10914 10911 10910 10907
11002 11003 11006 11006 11004 11000 11001 11000 10998 10996 10995 10996 10996 10995 10994 10991 10988 10985 10981 10979 10976 10974 10971 10969 10967 10967 10964 10960 10959 10960 10958 10954 10953 10951 10950 10946 10942 10935 10930 10926 10926 10922 10917 10914 10908 10901 10896 10893 10889
11000 11001 11004 11007 11007 11004 10999 10997 10998 10996 10995 10992 10991 10991 10992 10991 10987 10985 10983 10981 10978 10976 10973 10970 10967 10963 10961 10958 10955 10953 10951 10949 10945 10941 10942 10940 10933 10931 10925 10919 10919 10915 10910 10903 10896 10889 10882 10879 10873
10997 10999 11001 11004 11004 11004 11003 11003 11002 10998 10996 10994 10992 10990 10986 10983 10983 10981 10980 10977 10976 10973 10970 10967 10964 10961 10959 10957 10953 10951 10949 10943 10937 10933 10933 10931 10926 10922 10921 10914 10908 10905 10901 10897 10892 10884 10875 10866 10858
10990 10994 10998 11000 11002 11003 11000 11000 11003 10999 10998 10994 10990 10988 10985 10982 10979 10977 10976 10973 10972 10968 10966 10965 10962 10959 10954 10952 10949 10948 10943 10934 10927 10929 10928 10925 10922 10918 10914 10911 10907 10902 10896 10887 10878 10870 10864 10853 10841
10982 10988 10992 10995 10999 11000 11000 10999 10998 10999 10997 10995 10993 10990 10985 10981 10979 10977 10973 10970 10969 10964 10962 10962 10961 10957 10954 10947 10944 10942 10939 10932 10926 10927 10923 10917 10914 10910 10905 10900 10895 10887 10879 10870 10859 10851 10839 10830 10817
10973 10978 10984 10988 10993 10995 10996 10996 10995 10997 10996 10994 10991 10989 10985 10981 10977 10974 10971 10968 10966 10961 10956 10955 10954 10950 10947 10944 10941 10937 10933 10927 10921 10918 10914 10912 10906 10900 10894 10885 10876 10869 10861 10851 10841 10829 10819 10808 10794
10966 10971 10978 10981 10982 10989 10991 10990 10991 10990 10989 10989 10986 10984 10980 10977 10974 10971 10966 10964 10959 10955 10952 10950 10947 10943 10938 10935 10930 10924 10921 10915 10911 10906 10900 10895 10891 10884 10875 10869 10860 10851 10841 10830 10819 10807 10793 10782 10771